This demonstration page uses our WeatherBlox Daily Observations layout. Learn more.

Left ArrowRight Arrow

41.86663, -103.66717

Hourly Observations for February 20, 2015

Temp ( °F °C ) Dew Point ( °F °C ) Humidity (%) Winds ( mph kmh ) Pressure ( in mb ) Visibility ( mi km ) Precip ( " mm )
12:53 am 00:53 Partly Cloudy 32 undefined 23 -5 69 69 WNW 12 19 29.86 1011 10 16.0934 N/A
1:53 am 01:53 Clear 31 -0.6 23 -5 72 72 WNW 9 15 29.85 1011 10 16.0934 N/A
2:53 am 02:53 Mostly Clear 30 -1.1 24 -4.4 79 79 WNW 8 13 29.83 1010 10 16.0934 N/A
3:53 am 03:53 Clear 31 -0.6 24 -4.4 76 76 NW 9 15 29.81 1010 10 16.0934 N/A
4:53 am 04:53 Mostly Cloudy 32 undefined 24 -4.4 73 73 WNW 8 13 29.83 1010 10 16.0934 N/A
5:53 am 05:53 Cloudy 30 -1.1 24 -4.4 79 79 NW 5 7 29.84 1011 10 16.0934 N/A
6:53 am 06:53 Mostly Cloudy 28 -2.2 24 -4.4 85 85 N 6 9 29.85 1011 10 16.0934 N/A
7:53 am 07:53 Mostly Sunny 36 2.2 27 -2.8 70 70 N 3 6 29.85 1011 10 16.0934 N/A
8:53 am 08:53 Cloudy 38 3.3 27 -2.8 65 65 N 6 9 29.86 1011 10 16.0934 N/A
9:53 am 09:53 Mostly Sunny 43 6.1 26 -3.3 51 51 NE 5 7 29.84 1010 10 16.0934 N/A
10:53 am 10:53 Cloudy 46 7.8 26 -3.3 46 46 NE 10 17 29.84 1011 10 16.0934 N/A
11:53 am 11:53 Mostly Sunny 46 7.8 25 -3.9 44 44 ENE 10 17 29.83 1010 10 16.0934 N/A
12:53 pm 12:53 Mostly Cloudy 44 6.7 30 -1.1 58 58 NNE 14 22 29.84 1011 10 16.0934 N/A
1:53 pm 13:53 Cloudy 42 5.6 30 -1.1 62 62 N 13 20 29.85 1011 10 16.0934 N/A
2:53 pm 14:53 Cloudy 42 5.6 31 -0.6 65 65 NNE 9 15 29.87 1011 10 16.0934 N/A
3:53 pm 15:53 Cloudy 42 5.6 31 -0.6 65 65 NNW 9 15 29.88 1012 10 16.0934 N/A
4:53 pm 16:53 Cloudy 40 4.4 31 -0.6 70 70 NNW 8 13 29.89 1012 10 16.0934 N/A
5:53 pm 17:53 Cloudy 38 3.3 32 undefined 79 79 NW 6 9 29.93 1013 10 16.0934 N/A
6:53 pm 18:53 Cloudy 38 3.3 30 -1.1 73 73 NW 12 19 29.95 1014 10 16.0934 N/A
7:53 pm 19:53 Cloudy 36 2.2 30 -1.1 79 79 NNW 8 13 29.95 1014 10 16.0934 N/A
8:53 pm 20:53 Mostly Cloudy 32 undefined 29 -1.7 88 88 W 8 13 29.98 1015 10 16.0934 N/A
9:53 pm 21:53 Cloudy 33 0.6 29 -1.7 85 85 W 10 17 29.98 1015 10 16.0934 N/A
10:53 pm 22:53 Partly Cloudy 29 -1.7 26 -3.3 89 89 NW 7 11 29.98 1015 10 16.0934 N/A
11:53 pm 23:53 Clear 26 -3.3 23 -5 88 88 NW 7 11 29.99 1016 10 16.0934 N/A

Powered by AerisWeather